Wetterdaten: Dienstag, 09.06.2015
Datum Zeit Temp. I. Temp. A. Boden 5 cm Feuchte A. Sonne Luftdruck Regen Wind Sonnenschein
09.06.2015 00:02 24,0 C 17,3 C 17,1 C 80 % 0 % 1022 hPa 0,3 l/m 2,3 km/h (1 Bft) 0 min
09.06.2015 00:05 24,0 C 17,2 C 17,3 C 80 % 0 % 1022 hPa 0,3 l/m 1,3 km/h (1 Bft) 0 min
09.06.2015 00:08 24,0 C 17,1 C 16,9 C 80 % 0 % 1022 hPa 0,0 l/m 1,3 km/h (1 Bft) 0 min
09.06.2015 00:11 24,0 C 17,0 C 16,7 C 80 % 0 % 1022 hPa 0,7 l/m 6,0 km/h (2 Bft) 0 min
09.06.2015 00:14 24,0 C 16,9 C 16,9 C 81 % 0 % 1022 hPa 0,3 l/m 0,1 km/h (0 Bft) 0 min
09.06.2015 00:17 24,0 C 16,9 C 17,1 C 81 % 0 % 1022 hPa 0,0 l/m 0,4 km/h (0 Bft) 0 min
09.06.2015 00:20 24,0 C 16,9 C 17,0 C 81 % 0 % 1022 hPa 0,3 l/m 1,0 km/h (0 Bft) 0 min
09.06.2015 00:23 24,0 C 16,9 C 17,0 C 81 % 0 % 1022 hPa 0,3 l/m 4,1 km/h (1 Bft) 0 min
09.06.2015 00:26 24,0 C 16,8 C 16,9 C 81 % 0 % 1022 hPa 0,0 l/m 5,2 km/h (1 Bft) 0 min
09.06.2015 00:29 24,0 C 16,8 C 16,9 C 81 % 0 % 1022 hPa 0,3 l/m 0,1 km/h (0 Bft) 0 min
09.06.2015 00:32 24,0 C 16,8 C 16,9 C 81 % 0 % 1022 hPa 0,0 l/m 4,2 km/h (1 Bft) 0 min
09.06.2015 00:35 24,0 C 16,8 C 16,7 C 81 % 0 % 1022 hPa 0,3 l/m 0,1 km/h (0 Bft) 0 min
09.06.2015 00:38 24,0 C 16,8 C 16,8 C 82 % 0 % 1021 hPa 0,0 l/m 0,5 km/h (0 Bft) 0 min
09.06.2015 00:41 24,0 C 16,8 C 16,8 C 82 % 0 % 1021 hPa 0,3 l/m 0,1 km/h (0 Bft) 0 min
09.06.2015 00:44 24,0 C 16,9 C 17,1 C 82 % 0 % 1021 hPa 0,0 l/m 0,1 km/h (0 Bft) 0 min
09.06.2015 00:47 24,0 C 16,9 C 16,7 C 82 % 0 % 1021 hPa 0,0 l/m 0,8 km/h (0 Bft) 0 min
09.06.2015 00:50 24,0 C 16,8 C 16,7 C 82 % 0 % 1021 hPa 0,0 l/m 3,3 km/h (1 Bft) 0 min
09.06.2015 01:02 24,0 C 16,8 C 16,8 C 82 % 0 % 1021 hPa 0,3 l/m 0,1 km/h (0 Bft) 0 min
09.06.2015 01:05 24,0 C 16,8 C 16,7 C 82 % 0 % 1021 hPa 0,0 l/m 0,2 km/h (0 Bft) 0 min
09.06.2015 01:08 24,0 C 16,8 C 16,5 C 83 % 0 % 1021 hPa 0,3 l/m 7,2 km/h (2 Bft) 0 min
09.06.2015 01:11 24,0 C 16,8 C 16,5 C 83 % 0 % 1021 hPa 0,0 l/m 7,2 km/h (2 Bft) 0 min
09.06.2015 01:14 24,0 C 16,8 C 17,0 C 83 % 0 % 1021 hPa 0,0 l/m 3,4 km/h (1 Bft) 0 min
09.06.2015 01:17 24,0 C 16,7 C 16,8 C 84 % 0 % 1021 hPa 0,0 l/m 3,4 km/h (1 Bft) 0 min
09.06.2015 01:20 24,0 C 16,7 C 16,6 C 84 % 0 % 1021 hPa 0,0 l/m 7,6 km/h (2 Bft) 0 min
09.06.2015 01:23 24,0 C 16,7 C 16,9 C 83 % 0 % 1021 hPa 0,0 l/m 7,0 km/h (2 Bft) 0 min
09.06.2015 01:26 24,0 C 16,6 C 16,8 C 84 % 0 % 1021 hPa 0,0 l/m 7,5 km/h (2 Bft) 0 min
09.06.2015 01:29 24,0 C 16,6 C 16,7 C 84 % 0 % 1021 hPa 0,3 l/m 4,8 km/h (1 Bft) 0 min
09.06.2015 01:32 24,0 C 16,5 C 16,4 C 84 % 0 % 1021 hPa 0,0 l/m 13,9 km/h (3 Bft) 0 min
09.06.2015 01:35 24,0 C 16,5 C 16,4 C 84 % 0 % 1021 hPa 0,0 l/m 5,3 km/h (1 Bft) 0 min
09.06.2015 01:38 24,0 C 16,5 C 16,7 C 84 % 0 % 1021 hPa 0,0 l/m 5,3 km/h (1 Bft) 0 min
09.06.2015 01:41 24,0 C 16,4 C 16,7 C 84 % 0 % 1021 hPa 0,0 l/m 3,0 km/h (1 Bft) 0 min
09.06.2015 01:44 24,0 C 16,4 C 16,6 C 84 % 0 % 1021 hPa 0,0 l/m 0,3 km/h (0 Bft) 0 min
09.06.2015 01:47 24,0 C 16,4 C 16,5 C 84 % 0 % 1021 hPa 0,0 l/m 4,8 km/h (1 Bft) 0 min
09.06.2015 01:50 24,0 C 16,4 C 16,4 C 85 % 0 % 1021 hPa 0,0 l/m 0,0 km/h (0 Bft) 0 min
09.06.2015 01:56 24,0 C 16,4 C 16,6 C 85 % 0 % 1021 hPa 0,0 l/m 0,0 km/h (0 Bft) 0 min
09.06.2015 01:59 24,0 C 16,4 C 16,6 C 85 % 0 % 1021 hPa 0,0 l/m 0,1 km/h (0 Bft) 0 min
09.06.2015 02:02 24,0 C 16,4 C 16,3 C 85 % 0 % 1021 hPa 0,3 l/m 0,3 km/h (0 Bft) 0 min
09.06.2015 02:05 24,0 C 16,4 C 16,5 C 85 % 0 % 1021 hPa 0,0 l/m 0,1 km/h (0 Bft) 0 min
09.06.2015 02:08 24,0 C 16,4 C 16,4 C 84 % 0 % 1021 hPa 0,0 l/m 0,0 km/h (0 Bft) 0 min
09.06.2015 02:11 24,0 C 16,4 C 16,5 C 84 % 0 % 1021 hPa 0,0 l/m 0,1 km/h (0 Bft) 0 min
09.06.2015 02:14 24,0 C 16,4 C 16,3 C 84 % 0 % 1021 hPa 0,0 l/m 0,1 km/h (0 Bft) 0 min
09.06.2015 02:17 24,0 C 16,4 C 16,3 C 84 % 0 % 1021 hPa 0,0 l/m 0,1 km/h (0 Bft) 0 min
09.06.2015 02:20 24,0 C 16,4 C 16,5 C 85 % 0 % 1021 hPa 0,0 l/m 0,1 km/h (0 Bft) 0 min
09.06.2015 02:23 24,0 C 16,4 C 16,6 C 85 % 0 % 1021 hPa 0,0 l/m 0,0 km/h (0 Bft) 0 min
09.06.2015 02:26 24,0 C 16,4 C 16,6 C 85 % 0 % 1021 hPa 0,0 l/m 0,1 km/h (0 Bft) 0 min
09.06.2015 02:29 24,0 C 16,4 C 16,7 C 85 % 0 % 1021 hPa 0,3 l/m 0,0 km/h (0 Bft) 0 min
09.06.2015 02:32 24,0 C 16,4 C 16,6 C 85 % 0 % 1021 hPa 0,0 l/m 0,4 km/h (0 Bft) 0 min
09.06.2015 02:35 24,0 C 16,3 C 16,4 C 85 % 0 % 1021 hPa 0,0 l/m 0,2 km/h (0 Bft) 0 min
09.06.2015 02:38 24,0 C 16,3 C 16,5 C 85 % 0 % 1021 hPa 0,0 l/m 0,3 km/h (0 Bft) 0 min
09.06.2015 02:41 24,0 C 16,2 C 16,4 C 85 % 0 % 1021 hPa 0,0 l/m 2,5 km/h (1 Bft) 0 min
09.06.2015 02:44 24,0 C 16,1 C 16,3 C 86 % 0 % 1021 hPa 0,0 l/m 2,9 km/h (1 Bft) 0 min
09.06.2015 02:47 24,0 C 16,0 C 15,8 C 86 % 0 % 1021 hPa 0,0 l/m 7,2 km/h (2 Bft) 0 min
09.06.2015 02:50 24,0 C 16,0 C 16,0 C 86 % 0 % 1021 hPa 0,0 l/m 6,6 km/h (2 Bft) 0 min
09.06.2015 02:56 24,0 C 16,0 C 16,3 C 86 % 0 % 1021 hPa 0,3 l/m 1,3 km/h (1 Bft) 0 min
09.06.2015 02:59 24,0 C 15,9 C 16,0 C 86 % 0 % 1021 hPa 0,0 l/m 9,4 km/h (2 Bft) 0 min
09.06.2015 03:02 24,0 C 15,8 C 16,0 C 87 % 0 % 1021 hPa 0,0 l/m 9,3 km/h (2 Bft) 0 min
09.06.2015 03:05 24,0 C 15,7 C 16,1 C 87 % 0 % 1021 hPa 0,0 l/m 11,2 km/h (2 Bft) 0 min
09.06.2015 03:08 24,0 C 15,7 C 15,9 C 87 % 0 % 1021 hPa 0,3 l/m 8,1 km/h (2 Bft) 0 min
09.06.2015 03:11 24,0 C 15,7 C 15,8 C 87 % 0 % 1021 hPa 0,0 l/m 7,3 km/h (2 Bft) 0 min
09.06.2015 03:14 24,0 C 15,6 C 15,8 C 87 % 0 % 1021 hPa 0,0 l/m 5,8 km/h (2 Bft) 0 min
09.06.2015 03:17 24,0 C 15,6 C 15,7 C 87 % 0 % 1021 hPa 0,0 l/m 4,8 km/h (1 Bft) 0 min
09.06.2015 03:20 24,0 C 15,6 C 15,7 C 87 % 0 % 1021 hPa 0,0 l/m 5,4 km/h (1 Bft) 0 min
09.06.2015 03:23 24,0 C 15,6 C 15,6 C 87 % 0 % 1021 hPa 0,0 l/m 8,5 km/h (2 Bft) 0 min
09.06.2015 03:26 24,0 C 15,6 C 15,7 C 87 % 0 % 1021 hPa 0,0 l/m 4,3 km/h (1 Bft) 0 min
09.06.2015 03:29 24,0 C 15,5 C 15,6 C 87 % 0 % 1021 hPa 0,0 l/m 1,8 km/h (1 Bft) 0 min
09.06.2015 03:32 24,0 C 15,5 C 15,7 C 87 % 0 % 1021 hPa 0,0 l/m 0,0 km/h (0 Bft) 0 min
09.06.2015 03:35 24,0 C 15,5 C 15,7 C 87 % 0 % 1021 hPa 0,3 l/m 0,0 km/h (0 Bft) 0 min
09.06.2015 03:38 24,0 C 15,5 C 15,8 C 87 % 0 % 1021 hPa 0,0 l/m 0,6 km/h (0 Bft) 0 min
09.06.2015 03:41 24,0 C 15,4 C 15,4 C 88 % 0 % 1021 hPa 0,0 l/m 0,6 km/h (0 Bft) 0 min
09.06.2015 03:44 24,0 C 15,4 C 15,4 C 88 % 0 % 1021 hPa 0,0 l/m 4,2 km/h (1 Bft) 0 min
09.06.2015 03:47 24,0 C 15,4 C 15,4 C 88 % 0 % 1021 hPa 0,0 l/m 5,7 km/h (1 Bft) 0 min
09.06.2015 03:50 24,0 C 15,3 C 15,7 C 88 % 0 % 1021 hPa 0,0 l/m 5,0 km/h (1 Bft) 0 min
09.06.2015 03:56 24,0 C 15,3 C 15,4 C 88 % 0 % 1021 hPa 0,0 l/m 6,2 km/h (2 Bft) 0 min
09.06.2015 03:59 24,0 C 15,3 C 15,4 C 88 % 0 % 1021 hPa 0,0 l/m 4,5 km/h (1 Bft) 0 min
09.06.2015 04:02 24,0 C 15,2 C 15,4 C 88 % 0 % 1021 hPa 0,0 l/m 12,3 km/h (3 Bft) 0 min
09.06.2015 04:05 24,0 C 15,2 C 15,6 C 89 % 0 % 1021 hPa 0,0 l/m 4,2 km/h (1 Bft) 0 min
09.06.2015 04:08 24,0 C 15,2 C 15,5 C 89 % 0 % 1021 hPa 0,0 l/m 4,2 km/h (1 Bft) 0 min
09.06.2015 04:11 24,0 C 15,2 C 15,6 C 89 % 0 % 1021 hPa 0,0 l/m 6,3 km/h (2 Bft) 0 min
09.06.2015 04:14 24,0 C 15,2 C 15,3 C 89 % 0 % 1021 hPa 0,0 l/m 7,1 km/h (2 Bft) 0 min
09.06.2015 04:17 24,0 C 15,2 C 15,4 C 89 % 0 % 1021 hPa 0,0 l/m 3,4 km/h (1 Bft) 0 min
09.06.2015 04:20 24,0 C 15,1 C 15,5 C 89 % 0 % 1021 hPa 0,0 l/m 5,6 km/h (1 Bft) 0 min
09.06.2015 04:23 24,0 C 15,1 C 15,3 C 89 % 0 % 1021 hPa 0,0 l/m 8,4 km/h (2 Bft) 0 min
09.06.2015 04:26 24,0 C 15,0 C 15,4 C 89 % 0 % 1021 hPa 0,0 l/m 4,5 km/h (1 Bft) 0 min
09.06.2015 04:29 24,0 C 15,0 C 15,4 C 89 % 0 % 1021 hPa 0,0 l/m 5,4 km/h (1 Bft) 0 min
09.06.2015 04:32 24,0 C 15,1 C 15,5 C 89 % 0 % 1021 hPa 0,0 l/m 1,7 km/h (1 Bft) 0 min
09.06.2015 04:35 24,0 C 15,1 C 15,4 C 89 % 0 % 1021 hPa 0,0 l/m 0,2 km/h (0 Bft) 0 min
09.06.2015 04:38 24,0 C 15,1 C 15,3 C 89 % 0 % 1021 hPa 0,0 l/m 3,9 km/h (1 Bft) 0 min
09.06.2015 04:41 24,0 C 15,1 C 15,2 C 89 % 0 % 1021 hPa 0,0 l/m 9,6 km/h (2 Bft) 0 min
09.06.2015 04:44 24,0 C 15,1 C 15,4 C 89 % 0 % 1021 hPa 0,0 l/m 5,1 km/h (1 Bft) 0 min
09.06.2015 04:47 24,0 C 15,1 C 15,5 C 89 % 0 % 1021 hPa 0,0 l/m 2,7 km/h (1 Bft) 0 min
09.06.2015 04:50 24,0 C 15,1 C 15,5 C 89 % 0 % 1021 hPa 0,0 l/m 4,8 km/h (1 Bft) 0 min
09.06.2015 04:56 24,0 C 15,1 C 15,4 C 89 % 0 % 1021 hPa 0,0 l/m 6,8 km/h (2 Bft) 0 min
09.06.2015 04:59 24,0 C 15,1 C 15,3 C 89 % 0 % 1021 hPa 0,0 l/m 5,9 km/h (2 Bft) 0 min
09.06.2015 05:02 24,0 C 15,1 C 15,3 C 89 % 0 % 1021 hPa 0,0 l/m 0,7 km/h (0 Bft) 0 min
09.06.2015 05:05 24,0 C 15,1 C 15,4 C 89 % 0 % 1021 hPa 0,0 l/m 5,4 km/h (1 Bft) 0 min
09.06.2015 05:08 24,0 C 15,1 C 15,3 C 89 % 0 % 1021 hPa 0,0 l/m 3,9 km/h (1 Bft) 0 min
09.06.2015 05:11 24,0 C 15,0 C 15,2 C 89 % 0 % 1021 hPa 0,0 l/m 5,4 km/h (1 Bft) 0 min
09.06.2015 05:14 24,0 C 14,9 C 15,2 C 89 % 0 % 1021 hPa 0,3 l/m 2,4 km/h (1 Bft) 0 min
09.06.2015 05:17 24,0 C 15,0 C 15,2 C 89 % 0 % 1021 hPa 0,0 l/m 5,5 km/h (1 Bft) 0 min
09.06.2015 05:20 24,0 C 15,0 C 15,2 C 89 % 0 % 1021 hPa 0,0 l/m 0,0 km/h (0 Bft) 0 min
09.06.2015 05:23 24,0 C 15,0 C 15,3 C 89 % 0 % 1021 hPa 0,0 l/m 2,8 km/h (1 Bft) 0 min
09.06.2015 05:26 24,0 C 15,0 C 15,2 C 89 % 1 % 1021 hPa 0,0 l/m 3,1 km/h (1 Bft) 0 min
09.06.2015 05:29 24,0 C 15,0 C 15,4 C 89 % 1 % 1021 hPa 0,0 l/m 0,5 km/h (0 Bft) 0 min
09.06.2015 05:32 24,0 C 14,8 C 15,0 C 89 % 1 % 1021 hPa 0,0 l/m 1,7 km/h (1 Bft) 0 min
09.06.2015 05:35 24,0 C 14,8 C 15,1 C 89 % 1 % 1021 hPa 0,0 l/m 10,8 km/h (2 Bft) 0 min
09.06.2015 05:38 24,0 C 14,7 C 15,0 C 89 % 2 % 1021 hPa 0,0 l/m 10,7 km/h (2 Bft) 0 min
09.06.2015 05:41 24,0 C 14,7 C 14,9 C 89 % 2 % 1021 hPa 0,0 l/m 11,3 km/h (2 Bft) 0 min
09.06.2015 05:44 24,0 C 14,7 C 15,1 C 89 % 3 % 1021 hPa 0,0 l/m 7,9 km/h (2 Bft) 0 min
09.06.2015 05:47 24,0 C 14,7 C 15,0 C 89 % 2 % 1021 hPa 0,0 l/m 7,4 km/h (2 Bft) 0 min
09.06.2015 05:50 24,0 C 14,7 C 15,0 C 89 % 2 % 1021 hPa 0,0 l/m 4,6 km/h (1 Bft) 0 min
09.06.2015 05:56 24,0 C 14,6 C 15,0 C 89 % 2 % 1021 hPa 0,0 l/m 2,2 km/h (1 Bft) 0 min
09.06.2015 05:59 24,0 C 14,6 C 14,9 C 89 % 1 % 1021 hPa 0,0 l/m 9,5 km/h (2 Bft) 0 min
09.06.2015 06:02 24,0 C 14,6 C 15,2 C 89 % 2 % 1021 hPa 0,0 l/m 0,7 km/h (0 Bft) 0 min
09.06.2015 06:05 24,0 C 14,6 C 14,9 C 89 % 3 % 1021 hPa 0,0 l/m 0,7 km/h (0 Bft) 0 min
09.06.2015 06:08 24,0 C 14,6 C 14,9 C 89 % 3 % 1021 hPa 0,0 l/m 1,1 km/h (1 Bft) 0 min
09.06.2015 06:11 24,0 C 14,6 C 14,9 C 89 % 4 % 1021 hPa 0,0 l/m 4,6 km/h (1 Bft) 0 min
09.06.2015 06:14 24,0 C 14,6 C 14,9 C 89 % 4 % 1021 hPa 0,0 l/m 6,1 km/h (2 Bft) 0 min
09.06.2015 06:17 24,0 C 14,6 C 14,8 C 90 % 3 % 1021 hPa 0,0 l/m 8,7 km/h (2 Bft) 0 min
09.06.2015 06:20 24,0 C 14,6 C 14,8 C 89 % 3 % 1021 hPa 0,0 l/m 9,4 km/h (2 Bft) 0 min
09.06.2015 06:23 24,0 C 14,6 C 15,0 C 89 % 3 % 1021 hPa 0,0 l/m 5,0 km/h (1 Bft) 0 min
09.06.2015 06:26 24,0 C 14,6 C 15,0 C 90 % 2 % 1021 hPa 0,0 l/m 5,9 km/h (2 Bft) 0 min
09.06.2015 06:29 24,1 C 14,6 C 15,1 C 90 % 2 % 1021 hPa 0,0 l/m 2,2 km/h (1 Bft) 0 min
09.06.2015 06:32 24,1 C 14,5 C 15,0 C 90 % 2 % 1021 hPa 0,0 l/m 6,5 km/h (2 Bft) 0 min
09.06.2015 06:35 24,1 C 14,5 C 15,0 C 90 % 2 % 1021 hPa 0,0 l/m 5,8 km/h (2 Bft) 0 min
09.06.2015 06:38 24,1 C 14,5 C 14,8 C 90 % 2 % 1021 hPa 0,0 l/m 3,4 km/h (1 Bft) 0 min
09.06.2015 06:41 24,1 C 14,5 C 14,9 C 90 % 3 % 1021 hPa 0,0 l/m 6,7 km/h (2 Bft) 0 min
09.06.2015 06:44 24,2 C 14,5 C 14,9 C 90 % 3 % 1021 hPa 0,0 l/m 7,2 km/h (2 Bft) 0 min
09.06.2015 06:47 24,2 C 14,5 C 15,1 C 90 % 4 % 1022 hPa 0,0 l/m 8,7 km/h (2 Bft) 0 min
09.06.2015 06:50 24,1 C 14,5 C 15,0 C 90 % 4 % 1021 hPa 0,0 l/m 6,9 km/h (2 Bft) 0 min
09.06.2015 06:53 24,1 C 14,6 C 14,8 C 89 % 4 % 1022 hPa 0,0 l/m 8,6 km/h (2 Bft) 0 min
09.06.2015 06:56 24,1 C 14,6 C 14,8 C 89 % 5 % 1022 hPa 0,0 l/m 5,7 km/h (1 Bft) 0 min
09.06.2015 06:59 24,0 C 14,6 C 15,1 C 89 % 7 % 1022 hPa 0,0 l/m 3,3 km/h (1 Bft) 0 min
09.06.2015 07:02 23,8 C 14,6 C 14,9 C 89 % 8 % 1022 hPa 0,0 l/m 4,3 km/h (1 Bft) 0 min
09.06.2015 07:05 23,6 C 14,5 C 15,2 C 90 % 8 % 1022 hPa 0,0 l/m 7,5 km/h (2 Bft) 0 min
09.06.2015 07:08 23,5 C 14,6 C 15,1 C 89 % 8 % 1022 hPa 0,0 l/m 2,7 km/h (1 Bft) 0 min
09.06.2015 07:11 23,3 C 14,6 C 15,1 C 89 % 10 % 1022 hPa 0,0 l/m 10,8 km/h (2 Bft) 0 min
09.06.2015 07:14 23,4 C 14,6 C 15,1 C 89 % 9 % 1022 hPa 0,0 l/m 5,6 km/h (1 Bft) 0 min
09.06.2015 07:17 23,4 C 14,6 C 15,0 C 89 % 8 % 1022 hPa 0,0 l/m 2,8 km/h (1 Bft) 0 min
09.06.2015 07:20 23,5 C 14,5 C 14,9 C 89 % 7 % 1022 hPa 0,0 l/m 11,5 km/h (2 Bft) 0 min
09.06.2015 07:23 23,6 C 14,5 C 15,0 C 89 % 7 % 1022 hPa 0,0 l/m 8,1 km/h (2 Bft) 0 min
09.06.2015 07:26 23,6 C 14,5 C 14,8 C 89 % 10 % 1022 hPa 0,0 l/m 7,4 km/h (2 Bft) 0 min
09.06.2015 07:29 23,6 C 14,5 C 14,9 C 89 % 11 % 1022 hPa 0,0 l/m 6,5 km/h (2 Bft) 0 min
09.06.2015 07:32 23,6 C 14,6 C 14,9 C 89 % 12 % 1022 hPa 0,0 l/m 7,9 km/h (2 Bft) 0 min
09.06.2015 07:35 23,7 C 14,6 C 14,9 C 89 % 12 % 1022 hPa 0,0 l/m 9,9 km/h (2 Bft) 0 min
09.06.2015 07:38 23,7 C 14,6 C 14,9 C 89 % 12 % 1022 hPa 0,0 l/m 9,9 km/h (2 Bft) 0 min
09.06.2015 07:41 23,7 C 14,5 C 14,9 C 89 % 12 % 1022 hPa 0,0 l/m 8,2 km/h (2 Bft) 0 min
09.06.2015 07:44 23,8 C 14,5 C 14,9 C 89 % 11 % 1022 hPa 0,0 l/m 5,7 km/h (1 Bft) 0 min
09.06.2015 07:47 23,8 C 14,5 C 14,8 C 89 % 10 % 1022 hPa 0,0 l/m 6,0 km/h (2 Bft) 0 min
09.06.2015 07:50 23,8 C 14,5 C 14,7 C 89 % 9 % 1022 hPa 0,0 l/m 7,2 km/h (2 Bft) 0 min
09.06.2015 07:53 23,8 C 14,5 C 14,7 C 89 % 10 % 1022 hPa 0,0 l/m 6,5 km/h (2 Bft) 0 min
09.06.2015 07:56 23,8 C 14,5 C 14,7 C 88 % 10 % 1022 hPa 0,0 l/m 7,9 km/h (2 Bft) 0 min
09.06.2015 07:59 23,8 C 14,5 C 14,7 C 88 % 10 % 1022 hPa 0,0 l/m 7,9 km/h (2 Bft) 0 min
09.06.2015 08:02 23,8 C 14,5 C 14,9 C 88 % 10 % 1022 hPa 0,0 l/m 7,9 km/h (2 Bft) 0 min
09.06.2015 08:05 23,8 C 14,5 C 15,0 C 88 % 14 % 1022 hPa 0,0 l/m 7,4 km/h (2 Bft) 0 min
09.06.2015 08:08 23,8 C 14,5 C 14,7 C 88 % 14 % 1022 hPa 0,0 l/m 8,2 km/h (2 Bft) 0 min
09.06.2015 08:11 23,8 C 14,5 C 14,6 C 88 % 14 % 1022 hPa 0,0 l/m 13,6 km/h (3 Bft) 0 min
09.06.2015 08:14 23,8 C 14,5 C 14,6 C 88 % 15 % 1022 hPa 0,0 l/m 6,5 km/h (2 Bft) 0 min
09.06.2015 08:17 23,8 C 14,5 C 14,9 C 88 % 16 % 1022 hPa 0,0 l/m 11,3 km/h (2 Bft) 0 min
09.06.2015 08:20 23,8 C 14,5 C 14,8 C 88 % 17 % 1022 hPa 0,0 l/m 5,7 km/h (1 Bft) 0 min
09.06.2015 08:23 23,8 C 14,5 C 14,9 C 88 % 18 % 1022 hPa 0,0 l/m 5,7 km/h (1 Bft) 0 min
09.06.2015 08:26 23,8 C 14,5 C 14,8 C 88 % 20 % 1022 hPa 0,0 l/m 5,7 km/h (1 Bft) 0 min
09.06.2015 08:29 23,8 C 14,5 C 14,9 C 87 % 18 % 1022 hPa 0,0 l/m 7,2 km/h (2 Bft) 0 min
09.06.2015 08:32 23,8 C 14,5 C 14,8 C 87 % 16 % 1022 hPa 0,0 l/m 11,3 km/h (2 Bft) 0 min
09.06.2015 08:35 23,9 C 14,5 C 14,8 C 87 % 15 % 1022 hPa 0,0 l/m 6,4 km/h (2 Bft) 0 min
09.06.2015 08:38 23,8 C 14,6 C 15,1 C 87 % 16 % 1022 hPa 0,0 l/m 7,6 km/h (2 Bft) 0 min
09.06.2015 08:41 23,8 C 14,6 C 14,9 C 87 % 16 % 1022 hPa 0,0 l/m 3,3 km/h (1 Bft) 0 min
09.06.2015 08:44 23,9 C 14,6 C 14,9 C 87 % 14 % 1022 hPa 0,0 l/m 5,4 km/h (1 Bft) 0 min
09.06.2015 08:47 23,8 C 14,6 C 14,9 C 87 % 13 % 1022 hPa 0,0 l/m 4,5 km/h (1 Bft) 0 min
09.06.2015 08:50 23,8 C 14,7 C 15,1 C 87 % 13 % 1022 hPa 0,0 l/m 7,2 km/h (2 Bft) 0 min
09.06.2015 08:53 23,8 C 14,7 C 14,8 C 87 % 13 % 1022 hPa 0,0 l/m 9,0 km/h (2 Bft) 0 min
09.06.2015 08:56 23,8 C 14,6 C 14,7 C 86 % 13 % 1022 hPa 0,0 l/m 10,2 km/h (2 Bft) 0 min
09.06.2015 08:59 23,8 C 14,5 C 14,8 C 86 % 12 % 1022 hPa 0,0 l/m 10,4 km/h (2 Bft) 0 min
09.06.2015 09:02 23,8 C 14,5 C 14,8 C 86 % 11 % 1022 hPa 0,0 l/m 8,2 km/h (2 Bft) 0 min
09.06.2015 09:05 23,8 C 14,5 C 14,6 C 86 % 11 % 1022 hPa 0,0 l/m 10,0 km/h (2 Bft) 0 min
09.06.2015 09:08 23,8 C 14,4 C 14,7 C 86 % 12 % 1022 hPa 0,0 l/m 10,0 km/h (2 Bft) 0 min
09.06.2015 09:11 23,8 C 14,4 C 14,7 C 86 % 12 % 1022 hPa 0,0 l/m 12,7 km/h (3 Bft) 0 min
09.06.2015 09:14 23,8 C 14,4 C 14,8 C 86 % 13 % 1022 hPa 0,0 l/m 11,5 km/h (2 Bft) 0 min
09.06.2015 09:17 23,8 C 14,4 C 14,7 C 86 % 13 % 1022 hPa 0,0 l/m 10,9 km/h (2 Bft) 0 min
09.06.2015 09:20 23,8 C 14,4 C 14,6 C 86 % 13 % 1022 hPa 0,0 l/m 10,0 km/h (2 Bft) 0 min
09.06.2015 09:23 23,9 C 14,4 C 14,6 C 86 % 13 % 1022 hPa 0,0 l/m 13,2 km/h (3 Bft) 0 min
09.06.2015 09:26 23,9 C 14,4 C 14,8 C 86 % 14 % 1022 hPa 0,0 l/m 8,5 km/h (2 Bft) 0 min
09.06.2015 09:29 23,9 C 14,4 C 14,6 C 86 % 14 % 1022 hPa 0,0 l/m 13,4 km/h (3 Bft) 0 min
09.06.2015 09:32 23,9 C 14,4 C 14,8 C 86 % 14 % 1022 hPa 0,0 l/m 5,5 km/h (1 Bft) 0 min
09.06.2015 09:35 23,8 C 14,3 C 14,7 C 86 % 14 % 1022 hPa 0,0 l/m 11,0 km/h (2 Bft) 0 min
09.06.2015 09:38 23,9 C 14,4 C 14,9 C 86 % 15 % 1022 hPa 0,0 l/m 8,1 km/h (2 Bft) 0 min
09.06.2015 09:41 23,9 C 14,4 C 15,0 C 86 % 16 % 1022 hPa 0,0 l/m 8,1 km/h (2 Bft) 0 min
09.06.2015 09:44 23,9 C 14,4 C 15,0 C 86 % 16 % 1022 hPa 0,0 l/m 2,6 km/h (1 Bft) 0 min
09.06.2015 09:47 23,9 C 14,4 C 14,8 C 87 % 16 % 1022 hPa 0,0 l/m 7,4 km/h (2 Bft) 0 min
09.06.2015 09:50 23,9 C 14,5 C 14,8 C 87 % 16 % 1022 hPa 0,0 l/m 8,7 km/h (2 Bft) 0 min
09.06.2015 09:53 23,9 C 14,4 C 14,8 C 87 % 17 % 1022 hPa 0,0 l/m 11,0 km/h (2 Bft) 0 min
09.06.2015 09:56 23,9 C 14,4 C 14,7 C 87 % 20 % 1022 hPa 0,0 l/m 10,6 km/h (2 Bft) 0 min
09.06.2015 09:59 23,9 C 14,4 C 14,9 C 87 % 20 % 1022 hPa 0,0 l/m 8,5 km/h (2 Bft) 0 min
09.06.2015 10:02 23,9 C 14,4 C 14,8 C 87 % 20 % 1022 hPa 0,0 l/m 5,9 km/h (2 Bft) 0 min
09.06.2015 10:05 23,9 C 14,5 C 15,0 C 87 % 22 % 1023 hPa 0,0 l/m 8,1 km/h (2 Bft) 0 min
09.06.2015 10:08 23,8 C 14,5 C 14,9 C 87 % 21 % 1023 hPa 0,0 l/m 0,3 km/h (0 Bft) 0 min
09.06.2015 10:11 23,9 C 14,6 C 15,0 C 87 % 19 % 1023 hPa 0,0 l/m 3,9 km/h (1 Bft) 0 min
09.06.2015 10:14 23,9 C 14,6 C 15,0 C 87 % 21 % 1023 hPa 0,0 l/m 0,3 km/h (0 Bft) 0 min
09.06.2015 10:17 23,9 C 14,6 C 15,1 C 87 % 23 % 1023 hPa 0,0 l/m 0,1 km/h (0 Bft) 0 min
09.06.2015 10:20 23,9 C 14,7 C 15,0 C 87 % 26 % 1023 hPa 0,0 l/m 2,3 km/h (1 Bft) 0 min
09.06.2015 10:23 23,9 C 14,7 C 14,8 C 87 % 31 % 1023 hPa 0,0 l/m 9,8 km/h (2 Bft) 0 min
09.06.2015 10:26 23,8 C 14,7 C 14,7 C 87 % 36 % 1023 hPa 0,0 l/m 8,9 km/h (2 Bft) 0 min
09.06.2015 10:29 23,9 C 14,7 C 14,9 C 87 % 35 % 1023 hPa 0,0 l/m 8,4 km/h (2 Bft) 0 min
09.06.2015 10:32 23,9 C 14,7 C 15,1 C 87 % 34 % 1023 hPa 0,0 l/m 5,7 km/h (1 Bft) 0 min
09.06.2015 10:35 23,9 C 14,8 C 15,0 C 87 % 35 % 1023 hPa 0,0 l/m 10,3 km/h (2 Bft) 0 min
09.06.2015 10:38 23,9 C 14,9 C 15,1 C 87 % 33 % 1023 hPa 0,0 l/m 6,6 km/h (2 Bft) 0 min
09.06.2015 10:41 23,9 C 14,9 C 15,1 C 87 % 32 % 1023 hPa 0,0 l/m 7,7 km/h (2 Bft) 0 min
09.06.2015 10:44 23,9 C 15,0 C 15,2 C 86 % 36 % 1023 hPa 0,0 l/m 6,3 km/h (2 Bft) 0 min
09.06.2015 10:47 23,9 C 15,0 C 15,3 C 86 % 34 % 1023 hPa 0,0 l/m 6,3 km/h (2 Bft) 0 min
09.06.2015 10:50 23,9 C 15,1 C 15,3 C 86 % 34 % 1023 hPa 0,0 l/m 6,3 km/h (2 Bft) 0 min
09.06.2015 10:53 23,9 C 15,2 C 15,1 C 86 % 34 % 1023 hPa 0,0 l/m 4,0 km/h (1 Bft) 0 min
09.06.2015 10:56 23,9 C 15,2 C 15,3 C 86 % 22 % 1023 hPa 0,0 l/m 1,2 km/h (1 Bft) 0 min
09.06.2015 10:59 23,9 C 15,2 C 15,5 C 85 % 20 % 1023 hPa 0,0 l/m 0,7 km/h (0 Bft) 0 min
09.06.2015 11:02 23,9 C 15,1 C 15,5 C 85 % 19 % 1023 hPa 0,0 l/m 7,9 km/h (2 Bft) 0 min
09.06.2015 11:05 23,9 C 15,1 C 15,1 C 85 % 21 % 1023 hPa 0,0 l/m 4,4 km/h (1 Bft) 0 min
09.06.2015 11:08 23,9 C 15,1 C 15,2 C 85 % 21 % 1023 hPa 0,0 l/m 3,1 km/h (1 Bft) 0 min
09.06.2015 11:11 23,9 C 15,1 C 15,4 C 85 % 21 % 1023 hPa 0,0 l/m 7,9 km/h (2 Bft) 0 min
09.06.2015 11:14 23,9 C 15,1 C 15,4 C 85 % 29 % 1023 hPa 0,0 l/m 0,6 km/h (0 Bft) 0 min
09.06.2015 11:17 24,0 C 15,2 C 15,3 C 85 % 29 % 1023 hPa 0,0 l/m 2,2 km/h (1 Bft) 0 min
09.06.2015 11:20 23,9 C 15,1 C 15,1 C 84 % 29 % 1023 hPa 0,0 l/m 9,3 km/h (2 Bft) 0 min
09.06.2015 11:23 23,9 C 15,0 C 15,1 C 84 % 27 % 1023 hPa 0,0 l/m 8,8 km/h (2 Bft) 0 min
09.06.2015 11:26 23,9 C 15,0 C 15,2 C 84 % 27 % 1023 hPa 0,0 l/m 12,0 km/h (2 Bft) 0 min
09.06.2015 11:29 23,9 C 15,0 C 15,2 C 84 % 29 % 1023 hPa 0,0 l/m 10,3 km/h (2 Bft) 0 min
09.06.2015 11:32 23,9 C 15,0 C 15,2 C 84 % 33 % 1023 hPa 0,0 l/m 7,6 km/h (2 Bft) 0 min
09.06.2015 11:35 23,9 C 15,0 C 15,4 C 84 % 39 % 1023 hPa 0,0 l/m 6,7 km/h (2 Bft) 0 min
09.06.2015 11:38 23,9 C 15,1 C 15,3 C 83 % 41 % 1023 hPa 0,0 l/m 7,1 km/h (2 Bft) 0 min
09.06.2015 11:41 24,0 C 15,2 C 15,4 C 83 % 46 % 1023 hPa 0,0 l/m 8,2 km/h (2 Bft) 0 min
09.06.2015 11:44 23,9 C 15,3 C 15,4 C 83 % 48 % 1023 hPa 0,0 l/m 7,9 km/h (2 Bft) 0 min
09.06.2015 11:47 23,9 C 15,4 C 15,6 C 83 % 48 % 1023 hPa 0,0 l/m 6,4 km/h (2 Bft) 0 min
09.06.2015 11:50 23,9 C 15,5 C 15,5 C 83 % 52 % 1023 hPa 0,0 l/m 4,9 km/h (1 Bft) 0 min
09.06.2015 11:53 23,9 C 15,5 C 15,6 C 83 % 52 % 1023 hPa 0,0 l/m 6,8 km/h (2 Bft) 0 min
09.06.2015 11:56 23,9 C 15,8 C 15,6 C 82 % 54 % 1023 hPa 0,0 l/m 4,5 km/h (1 Bft) 3 min
09.06.2015 11:59 23,9 C 15,9 C 15,8 C 81 % 53 % 1023 hPa 0,0 l/m 1,1 km/h (1 Bft) 0 min
09.06.2015 12:02 23,9 C 15,9 C 15,8 C 81 % 59 % 1023 hPa 0,0 l/m 5,8 km/h (2 Bft) 3 min
09.06.2015 12:05 23,9 C 15,9 C 16,0 C 79 % 64 % 1023 hPa 0,0 l/m 5,5 km/h (1 Bft) 3 min
09.06.2015 12:08 24,0 C 16,0 C 15,8 C 79 % 62 % 1023 hPa 0,0 l/m 4,6 km/h (1 Bft) 3 min
09.06.2015 12:11 23,9 C 16,1 C 16,1 C 79 % 57 % 1023 hPa 0,0 l/m 6,8 km/h (2 Bft) 3 min
09.06.2015 12:14 23,9 C 16,1 C 16,1 C 79 % 54 % 1023 hPa 0,0 l/m 7,0 km/h (2 Bft) 3 min
09.06.2015 12:17 23,9 C 16,1 C 16,2 C 78 % 52 % 1023 hPa 0,0 l/m 0,4 km/h (0 Bft) 0 min
09.06.2015 12:20 23,9 C 16,2 C 16,2 C 78 % 52 % 1023 hPa 0,0 l/m 0,2 km/h (0 Bft) 0 min
09.06.2015 12:23 23,9 C 16,3 C 16,2 C 78 % 52 % 1023 hPa 0,0 l/m 3,6 km/h (1 Bft) 0 min
09.06.2015 12:26 23,9 C 16,3 C 16,2 C 78 % 41 % 1023 hPa 0,0 l/m 6,4 km/h (2 Bft) 0 min
09.06.2015 12:29 23,9 C 16,3 C 16,2 C 77 % 45 % 1023 hPa 0,0 l/m 0,0 km/h (0 Bft) 0 min
09.06.2015 12:32 23,9 C 16,3 C 16,3 C 76 % 47 % 1023 hPa 0,0 l/m 0,4 km/h (0 Bft) 0 min
09.06.2015 12:35 23,9 C 16,4 C 16,5 C 76 % 48 % 1023 hPa 0,0 l/m 3,1 km/h (1 Bft) 0 min
09.06.2015 12:38 23,9 C 16,5 C 16,5 C 76 % 42 % 1023 hPa 0,0 l/m 0,9 km/h (0 Bft) 0 min
09.06.2015 12:41 23,9 C 16,6 C 16,3 C 76 % 37 % 1023 hPa 0,0 l/m 4,0 km/h (1 Bft) 0 min
09.06.2015 12:44 23,9 C 16,6 C 16,4 C 76 % 32 % 1023 hPa 0,0 l/m 1,0 km/h (0 Bft) 0 min
09.06.2015 12:47 23,9 C 16,6 C 16,0 C 75 % 32 % 1023 hPa 0,0 l/m 0,2 km/h (0 Bft) 0 min
09.06.2015 12:50 23,9 C 16,5 C 16,3 C 75 % 22 % 1023 hPa 0,0 l/m 0,0 km/h (0 Bft) 0 min
09.06.2015 12:53 23,9 C 16,4 C 16,2 C 75 % 18 % 1023 hPa 0,0 l/m 2,5 km/h (1 Bft) 0 min
09.06.2015 12:56 23,9 C 16,4 C 16,1 C 75 % 16 % 1023 hPa 0,0 l/m 0,0 km/h (0 Bft) 0 min
09.06.2015 12:59 23,9 C 16,3 C 16,4 C 75 % 15 % 1023 hPa 0,0 l/m 0,0 km/h (0 Bft) 0 min
09.06.2015 13:02 23,9 C 16,3 C 16,2 C 75 % 15 % 1023 hPa 0,0 l/m 4,3 km/h (1 Bft) 0 min
09.06.2015 13:05 23,9 C 16,3 C 16,1 C 75 % 15 % 1023 hPa 0,0 l/m 0,3 km/h (0 Bft) 0 min
09.06.2015 13:08 23,9 C 16,2 C 15,9 C 75 % 15 % 1023 hPa 0,0 l/m 0,0 km/h (0 Bft) 0 min
09.06.2015 13:11 23,9 C 16,2 C 16,0 C 75 % 16 % 1023 hPa 0,0 l/m 0,3 km/h (0 Bft) 0 min
09.06.2015 13:14 23,9 C 16,1 C 16,1 C 76 % 15 % 1023 hPa 0,0 l/m 0,1 km/h (0 Bft) 0 min
09.06.2015 13:17 23,9 C 16,1 C 16,1 C 76 % 15 % 1023 hPa 0,0 l/m 0,1 km/h (0 Bft) 0 min
09.06.2015 13:20 23,9 C 16,1 C 16,0 C 76 % 16 % 1023 hPa 0,0 l/m 0,0 km/h (0 Bft) 0 min
09.06.2015 13:23 23,9 C 16,1 C 15,9 C 76 % 16 % 1023 hPa 0,0 l/m 0,1 km/h (0 Bft) 0 min
09.06.2015 13:26 23,9 C 16,1 C 15,9 C 76 % 16 % 1023 hPa 0,0 l/m 0,0 km/h (0 Bft) 0 min
09.06.2015 13:29 23,9 C 16,1 C 16,3 C 76 % 17 % 1023 hPa 0,0 l/m 0,0 km/h (0 Bft) 0 min
09.06.2015 13:32 23,9 C 16,2 C 16,2 C 76 % 17 % 1023 hPa 0,0 l/m 0,0 km/h (0 Bft) 0 min
09.06.2015 13:35 23,9 C 16,2 C 16,2 C 76 % 17 % 1023 hPa 0,0 l/m 0,0 km/h (0 Bft) 0 min
09.06.2015 13:38 23,9 C 16,2 C 16,2 C 76 % 20 % 1023 hPa 0,0 l/m 0,0 km/h (0 Bft) 0 min
09.06.2015 13:41 23,9 C 16,2 C 16,4 C 76 % 21 % 1023 hPa 0,0 l/m 0,0 km/h (0 Bft) 0 min
09.06.2015 13:44 23,9 C 16,3 C 16,4 C 76 % 21 % 1023 hPa 0,0 l/m 0,1 km/h (0 Bft) 0 min
09.06.2015 13:47 24,0 C 16,3 C 16,1 C 76 % 18 % 1023 hPa 0,0 l/m 0,0 km/h (0 Bft) 0 min
09.06.2015 13:50 24,0 C 16,3 C 16,1 C 76 % 18 % 1023 hPa 0,0 l/m 0,2 km/h (0 Bft) 0 min
09.06.2015 13:53 24,0 C 16,3 C 16,1 C 76 % 19 % 1023 hPa 0,0 l/m 0,0 km/h (0 Bft) 0 min
09.06.2015 13:56 24,0 C 16,3 C 16,2 C 76 % 20 % 1023 hPa 0,0 l/m 3,8 km/h (1 Bft) 0 min
09.06.2015 13:59 24,0 C 16,2 C 16,1 C 75 % 19 % 1023 hPa 0,0 l/m 4,0 km/h (1 Bft) 0 min
09.06.2015 14:02 24,0 C 16,1 C 16,1 C 75 % 19 % 1023 hPa 0,0 l/m 4,0 km/h (1 Bft) 0 min
09.06.2015 14:05 24,0 C 16,0 C 16,3 C 75 % 20 % 1023 hPa 0,0 l/m 4,6 km/h (1 Bft) 0 min
09.06.2015 14:08 24,0 C 16,0 C 16,1 C 75 % 21 % 1023 hPa 0,0 l/m 3,0 km/h (1 Bft) 0 min
09.06.2015 14:11 24,0 C 16,0 C 16,2 C 75 % 21 % 1023 hPa 0,0 l/m 1,9 km/h (1 Bft) 0 min
09.06.2015 14:14 24,0 C 16,0 C 16,2 C 75 % 24 % 1023 hPa 0,0 l/m 2,4 km/h (1 Bft) 0 min
09.06.2015 14:17 24,0 C 16,1 C 16,4 C 75 % 28 % 1023 hPa 0,0 l/m 0,6 km/h (0 Bft) 0 min
09.06.2015 14:20 24,0 C 16,1 C 16,3 C 75 % 28 % 1023 hPa 0,0 l/m 2,2 km/h (1 Bft) 0 min
09.06.2015 14:23 24,0 C 16,4 C 16,4 C 75 % 32 % 1023 hPa 0,0 l/m 0,3 km/h (0 Bft) 0 min
09.06.2015 14:26 24,0 C 16,4 C 16,2 C 74 % 34 % 1023 hPa 0,0 l/m 3,1 km/h (1 Bft) 0 min
09.06.2015 14:29 24,0 C 16,4 C 16,5 C 74 % 34 % 1023 hPa 0,0 l/m 0,3 km/h (0 Bft) 0 min
09.06.2015 14:32 24,0 C 16,5 C 16,4 C 74 % 31 % 1023 hPa 0,0 l/m 0,3 km/h (0 Bft) 0 min
09.06.2015 14:35 24,0 C 16,5 C 16,5 C 74 % 33 % 1023 hPa 0,0 l/m 3,5 km/h (1 Bft) 0 min
09.06.2015 14:38 24,0 C 16,5 C 16,4 C 74 % 34 % 1023 hPa 0,0 l/m 3,4 km/h (1 Bft) 0 min
09.06.2015 14:41 24,0 C 16,6 C 16,2 C 73 % 36 % 1023 hPa 0,0 l/m 1,8 km/h (1 Bft) 0 min
09.06.2015 14:44 24,0 C 16,6 C 16,4 C 73 % 41 % 1023 hPa 0,0 l/m 0,4 km/h (0 Bft) 0 min
09.06.2015 14:47 24,0 C 16,7 C 16,4 C 73 % 46 % 1023 hPa 0,0 l/m 0,4 km/h (0 Bft) 0 min
09.06.2015 14:50 24,0 C 16,8 C 16,7 C 73 % 50 % 1023 hPa 0,0 l/m 2,0 km/h (1 Bft) 0 min
09.06.2015 14:53 23,9 C 17,0 C 16,8 C 72 % 54 % 1023 hPa 0,0 l/m 3,1 km/h (1 Bft) 3 min
09.06.2015 14:56 23,9 C 17,1 C 16,8 C 72 % 57 % 1023 hPa 0,0 l/m 0,3 km/h (0 Bft) 3 min
09.06.2015 14:59 24,0 C 17,2 C 16,8 C 71 % 59 % 1023 hPa 0,0 l/m 0,3 km/h (0 Bft) 3 min
09.06.2015 15:02 24,0 C 17,3 C 16,8 C 71 % 59 % 1023 hPa 0,0 l/m 6,8 km/h (2 Bft) 3 min
09.06.2015 15:05 24,0 C 17,3 C 16,9 C 71 % 59 % 1023 hPa 0,0 l/m 6,1 km/h (2 Bft) 3 min
09.06.2015 15:08 24,0 C 17,3 C 16,9 C 70 % 57 % 1023 hPa 0,0 l/m 4,2 km/h (1 Bft) 3 min
09.06.2015 15:11 24,0 C 17,3 C 17,0 C 70 % 56 % 1023 hPa 0,3 l/m 4,2 km/h (1 Bft) 3 min
09.06.2015 15:14 24,0 C 17,4 C 17,0 C 70 % 61 % 1023 hPa 0,0 l/m 0,1 km/h (0 Bft) 3 min
09.06.2015 15:17 24,0 C 17,5 C 17,1 C 70 % 62 % 1023 hPa 0,0 l/m 0,1 km/h (0 Bft) 3 min
09.06.2015 15:20 24,0 C 17,5 C 17,2 C 70 % 62 % 1023 hPa 0,0 l/m 4,4 km/h (1 Bft) 3 min
09.06.2015 15:23 24,0 C 17,6 C 17,2 C 70 % 62 % 1023 hPa 0,0 l/m 0,9 km/h (0 Bft) 3 min
09.06.2015 15:26 24,0 C 17,6 C 17,2 C 69 % 42 % 1023 hPa 0,0 l/m 6,1 km/h (2 Bft) 0 min
09.06.2015 15:29 23,9 C 17,5 C 17,2 C 69 % 38 % 1023 hPa 0,0 l/m 5,5 km/h (1 Bft) 0 min
09.06.2015 15:32 24,0 C 17,4 C 17,2 C 69 % 40 % 1023 hPa 0,0 l/m 4,5 km/h (1 Bft) 0 min
09.06.2015 15:35 24,0 C 17,4 C 17,1 C 69 % 39 % 1023 hPa 0,0 l/m 0,3 km/h (0 Bft) 0 min
09.06.2015 15:38 24,0 C 17,4 C 17,3 C 70 % 36 % 1023 hPa 0,0 l/m 0,3 km/h (0 Bft) 0 min
09.06.2015 15:41 24,0 C 17,5 C 17,1 C 69 % 35 % 1023 hPa 0,0 l/m 0,0 km/h (0 Bft) 0 min
09.06.2015 15:44 24,0 C 17,5 C 17,3 C 69 % 32 % 1023 hPa 0,0 l/m 0,0 km/h (0 Bft) 0 min
09.06.2015 15:47 23,9 C 17,5 C 17,1 C 69 % 30 % 1023 hPa 0,0 l/m 0,0 km/h (0 Bft) 0 min
09.06.2015 15:50 24,0 C 17,4 C 17,3 C 69 % 26 % 1023 hPa 0,0 l/m 0,0 km/h (0 Bft) 0 min
09.06.2015 15:53 23,9 C 17,3 C 17,1 C 69 % 24 % 1023 hPa 0,0 l/m 0,0 km/h (0 Bft) 0 min
09.06.2015 15:56 24,0 C 17,3 C 17,0 C 69 % 23 % 1023 hPa 0,0 l/m 0,0 km/h (0 Bft) 0 min
09.06.2015 15:59 24,0 C 17,2 C 17,1 C 69 % 20 % 1023 hPa 0,0 l/m 0,0 km/h (0 Bft) 0 min
09.06.2015 16:02 24,0 C 17,1 C 17,0 C 69 % 18 % 1023 hPa 0,0 l/m 0,0 km/h (0 Bft) 0 min
09.06.2015 16:05 24,0 C 17,0 C 16,9 C 69 % 17 % 1023 hPa 0,0 l/m 0,1 km/h (0 Bft) 0 min
09.06.2015 16:08 23,9 C 17,0 C 16,9 C 69 % 16 % 1023 hPa 0,0 l/m 5,3 km/h (1 Bft) 0 min
09.06.2015 16:11 23,9 C 17,0 C 16,9 C 70 % 15 % 1023 hPa 0,0 l/m 0,5 km/h (0 Bft) 0 min
09.06.2015 16:14 23,9 C 16,8 C 16,9 C 70 % 14 % 1023 hPa 0,0 l/m 0,4 km/h (0 Bft) 0 min
09.06.2015 16:17 23,9 C 16,8 C 16,9 C 70 % 12 % 1023 hPa 0,0 l/m 1,7 km/h (1 Bft) 0 min
09.06.2015 16:20 23,9 C 16,9 C 16,7 C 70 % 11 % 1023 hPa 0,0 l/m 0,7 km/h (0 Bft) 0 min
09.06.2015 16:23 23,9 C 16,8 C 16,7 C 71 % 11 % 1023 hPa 0,0 l/m 0,7 km/h (0 Bft) 0 min
09.06.2015 16:26 23,9 C 16,7 C 16,7 C 72 % 12 % 1023 hPa 0,0 l/m 0,1 km/h (0 Bft) 0 min
09.06.2015 16:29 23,9 C 16,5 C 16,4 C 73 % 12 % 1023 hPa 0,0 l/m 0,6 km/h (0 Bft) 0 min
09.06.2015 16:32 23,9 C 16,4 C 16,5 C 74 % 12 % 1023 hPa 0,0 l/m 0,3 km/h (0 Bft) 0 min
09.06.2015 16:35 23,9 C 16,4 C 16,4 C 74 % 10 % 1023 hPa 0,0 l/m 0,6 km/h (0 Bft) 0 min
09.06.2015 16:38 24,0 C 16,3 C 16,5 C 75 % 9 % 1023 hPa 0,0 l/m 0,0 km/h (0 Bft) 0 min
09.06.2015 16:41 24,0 C 16,3 C 16,6 C 75 % 9 % 1023 hPa 0,0 l/m 0,0 km/h (0 Bft) 0 min
09.06.2015 16:44 24,0 C 16,2 C 16,4 C 76 % 9 % 1023 hPa 0,0 l/m 0,3 km/h (0 Bft) 0 min
09.06.2015 16:47 24,1 C 16,2 C 16,3 C 76 % 9 % 1023 hPa 0,0 l/m 0,0 km/h (0 Bft) 0 min
09.06.2015 16:50 24,1 C 16,2 C 16,2 C 77 % 8 % 1023 hPa 0,0 l/m 0,7 km/h (0 Bft) 0 min
09.06.2015 16:53 24,1 C 16,1 C 16,4 C 77 % 9 % 1023 hPa 0,0 l/m 0,7 km/h (0 Bft) 0 min
09.06.2015 16:56 24,0 C 16,0 C 16,2 C 78 % 10 % 1023 hPa 0,0 l/m 0,2 km/h (0 Bft) 0 min
09.06.2015 16:59 24,1 C 16,0 C 16,3 C 78 % 12 % 1023 hPa 0,0 l/m 0,0 km/h (0 Bft) 0 min
09.06.2015 17:02 24,1 C 16,0 C 16,1 C 79 % 13 % 1023 hPa 0,0 l/m 0,1 km/h (0 Bft) 0 min
09.06.2015 17:05 24,0 C 15,9 C 16,1 C 80 % 14 % 1023 hPa 0,0 l/m 0,1 km/h (0 Bft) 0 min
09.06.2015 17:08 24,0 C 15,9 C 16,0 C 80 % 14 % 1023 hPa 0,0 l/m 3,1 km/h (1 Bft) 0 min
09.06.2015 17:11 23,7 C 16,0 C 16,4 C 80 % 14 % 1023 hPa 0,0 l/m 3,4 km/h (1 Bft) 0 min
09.06.2015 17:14 23,6 C 15,9 C 16,2 C 80 % 13 % 1023 hPa 0,0 l/m 0,6 km/h (0 Bft) 0 min
09.06.2015 17:17 23,5 C 15,9 C 16,1 C 80 % 14 % 1023 hPa 0,0 l/m 1,8 km/h (1 Bft) 0 min
09.06.2015 17:20 23,4 C 15,9 C 16,1 C 81 % 14 % 1023 hPa 0,0 l/m 0,0 km/h (0 Bft) 0 min
09.06.2015 17:23 23,4 C 15,9 C 16,2 C 81 % 14 % 1023 hPa 0,0 l/m 4,3 km/h (1 Bft) 0 min
09.06.2015 17:26 23,3 C 15,9 C 15,9 C 81 % 12 % 1023 hPa 0,0 l/m 0,7 km/h (0 Bft) 0 min
09.06.2015 17:29 23,3 C 15,9 C 16,0 C 81 % 12 % 1023 hPa 0,0 l/m 6,3 km/h (2 Bft) 0 min
09.06.2015 17:32 23,3 C 15,8 C 16,0 C 81 % 12 % 1023 hPa 0,0 l/m 6,3 km/h (2 Bft) 0 min
09.06.2015 17:35 23,2 C 15,7 C 16,0 C 81 % 14 % 1023 hPa 0,0 l/m 0,0 km/h (0 Bft) 0 min
09.06.2015 17:38 23,1 C 15,8 C 16,0 C 81 % 16 % 1023 hPa 0,0 l/m 0,1 km/h (0 Bft) 0 min
09.06.2015 17:41 23,1 C 15,7 C 15,9 C 81 % 17 % 1023 hPa 0,0 l/m 0,1 km/h (0 Bft) 0 min
09.06.2015 17:44 23,1 C 15,7 C 15,9 C 81 % 17 % 1023 hPa 0,0 l/m 0,1 km/h (0 Bft) 0 min
09.06.2015 17:47 23,0 C 15,7 C 15,9 C 81 % 14 % 1023 hPa 0,0 l/m 0,0 km/h (0 Bft) 0 min
09.06.2015 17:50 23,1 C 15,7 C 15,9 C 82 % 14 % 1023 hPa 0,0 l/m 0,1 km/h (0 Bft) 0 min
09.06.2015 17:53 23,0 C 15,7 C 16,1 C 82 % 14 % 1023 hPa 0,0 l/m 0,1 km/h (0 Bft) 0 min
09.06.2015 17:56 23,0 C 15,7 C 15,9 C 82 % 12 % 1023 hPa 0,0 l/m 6,3 km/h (2 Bft) 0 min
09.06.2015 17:59 23,0 C 15,7 C 16,0 C 82 % 15 % 1023 hPa 0,0 l/m 0,3 km/h (0 Bft) 0 min
09.06.2015 18:02 23,0 C 15,7 C 15,8 C 82 % 15 % 1023 hPa 0,0 l/m 0,6 km/h (0 Bft) 0 min
09.06.2015 18:05 23,1 C 15,7 C 15,8 C 82 % 15 % 1023 hPa 0,0 l/m 0,6 km/h (0 Bft) 0 min
09.06.2015 18:08 23,1 C 15,7 C 16,1 C 82 % 12 % 1023 hPa 0,0 l/m 0,9 km/h (0 Bft) 0 min
09.06.2015 18:11 23,2 C 15,7 C 15,9 C 82 % 11 % 1023 hPa 0,0 l/m 4,6 km/h (1 Bft) 0 min
09.06.2015 18:14 23,2 C 15,7 C 16,0 C 82 % 10 % 1023 hPa 0,0 l/m 3,5 km/h (1 Bft) 0 min
09.06.2015 18:17 23,4 C 15,6 C 16,0 C 82 % 10 % 1023 hPa 0,0 l/m 4,7 km/h (1 Bft) 0 min
09.06.2015 18:20 23,4 C 15,6 C 16,1 C 82 % 10 % 1023 hPa 0,0 l/m 4,3 km/h (1 Bft) 0 min
09.06.2015 18:23 23,4 C 15,6 C 15,8 C 82 % 11 % 1023 hPa 0,0 l/m 4,0 km/h (1 Bft) 0 min
09.06.2015 18:26 23,5 C 15,5 C 15,7 C 82 % 10 % 1023 hPa 0,0 l/m 3,6 km/h (1 Bft) 0 min
09.06.2015 18:29 23,5 C 15,5 C 15,8 C 83 % 10 % 1023 hPa 0,0 l/m 0,9 km/h (0 Bft) 0 min
09.06.2015 18:32 23,6 C 15,5 C 16,0 C 83 % 10 % 1023 hPa 0,0 l/m 0,3 km/h (0 Bft) 0 min
09.06.2015 18:35 23,6 C 15,5 C 15,8 C 83 % 10 % 1024 hPa 0,3 l/m 0,0 km/h (0 Bft) 0 min
09.06.2015 18:38 23,6 C 15,5 C 16,0 C 83 % 9 % 1024 hPa 0,0 l/m 0,3 km/h (0 Bft) 0 min
09.06.2015 18:41 23,6 C 15,5 C 15,9 C 83 % 8 % 1024 hPa 0,0 l/m 4,5 km/h (1 Bft) 0 min
09.06.2015 18:44 23,6 C 15,5 C 15,8 C 83 % 8 % 1024 hPa 0,0 l/m 0,1 km/h (0 Bft) 0 min
09.06.2015 18:47 23,6 C 15,5 C 16,0 C 83 % 6 % 1024 hPa 0,0 l/m 3,2 km/h (1 Bft) 0 min
09.06.2015 18:50 23,6 C 15,5 C 16,1 C 84 % 6 % 1024 hPa 0,0 l/m 2,3 km/h (1 Bft) 0 min
09.06.2015 18:53 23,6 C 15,5 C 15,9 C 84 % 7 % 1024 hPa 0,0 l/m 0,7 km/h (0 Bft) 0 min
09.06.2015 18:56 23,6 C 15,5 C 15,9 C 84 % 6 % 1024 hPa 0,0 l/m 0,3 km/h (0 Bft) 0 min
09.06.2015 18:59 23,6 C 15,4 C 15,6 C 84 % 7 % 1024 hPa 0,0 l/m 0,6 km/h (0 Bft) 0 min
09.06.2015 19:02 23,6 C 15,4 C 15,9 C 84 % 7 % 1024 hPa 0,0 l/m 0,0 km/h (0 Bft) 0 min
09.06.2015 19:05 23,6 C 15,3 C 15,8 C 85 % 7 % 1024 hPa 0,0 l/m 0,4 km/h (0 Bft) 0 min
09.06.2015 19:08 23,6 C 15,3 C 15,6 C 85 % 7 % 1024 hPa 0,0 l/m 0,1 km/h (0 Bft) 0 min
09.06.2015 19:11 23,7 C 15,3 C 15,7 C 85 % 7 % 1024 hPa 0,0 l/m 0,0 km/h (0 Bft) 0 min
09.06.2015 19:14 23,7 C 15,3 C 15,7 C 85 % 7 % 1024 hPa 0,0 l/m 0,0 km/h (0 Bft) 0 min
09.06.2015 19:17 23,6 C 15,3 C 15,6 C 85 % 6 % 1024 hPa 0,0 l/m 0,0 km/h (0 Bft) 0 min
09.06.2015 19:20 23,7 C 15,3 C 15,4 C 85 % 6 % 1024 hPa 0,3 l/m 0,1 km/h (0 Bft) 0 min
09.06.2015 19:23 23,7 C 15,3 C 15,7 C 85 % 6 % 1024 hPa 0,0 l/m 0,4 km/h (0 Bft) 0 min
09.06.2015 19:26 23,7 C 15,2 C 15,3 C 85 % 6 % 1024 hPa 0,0 l/m 0,4 km/h (0 Bft) 0 min
09.06.2015 19:29 23,7 C 15,1 C 15,4 C 85 % 6 % 1024 hPa 0,0 l/m 0,0 km/h (0 Bft) 0 min
09.06.2015 19:32 23,7 C 15,1 C 15,4 C 86 % 5 % 1024 hPa 0,0 l/m 0,0 km/h (0 Bft) 0 min
09.06.2015 19:35 23,7 C 15,1 C 15,4 C 86 % 5 % 1024 hPa 0,0 l/m 0,1 km/h (0 Bft) 0 min
09.06.2015 19:38 23,6 C 15,1 C 15,5 C 86 % 4 % 1024 hPa 0,0 l/m 0,0 km/h (0 Bft) 0 min
09.06.2015 19:41 23,6 C 15,0 C 15,5 C 86 % 4 % 1024 hPa 0,0 l/m 0,1 km/h (0 Bft) 0 min
09.06.2015 19:44 23,6 C 14,9 C 15,3 C 86 % 4 % 1024 hPa 0,0 l/m 0,0 km/h (0 Bft) 0 min
09.06.2015 19:47 23,6 C 15,0 C 15,5 C 86 % 4 % 1024 hPa 0,0 l/m 0,0 km/h (0 Bft) 0 min
09.06.2015 19:50 23,6 C 15,0 C 15,3 C 86 % 4 % 1024 hPa 0,0 l/m 0,0 km/h (0 Bft) 0 min
09.06.2015 19:53 23,6 C 15,0 C 15,2 C 86 % 4 % 1024 hPa 0,0 l/m 0,0 km/h (0 Bft) 0 min
09.06.2015 19:56 23,6 C 15,0 C 15,1 C 86 % 4 % 1024 hPa 0,0 l/m 0,0 km/h (0 Bft) 0 min
09.06.2015 19:59 23,6 C 15,0 C 15,3 C 86 % 4 % 1024 hPa 0,0 l/m 0,1 km/h (0 Bft) 0 min
09.06.2015 20:02 23,6 C 15,0 C 15,4 C 86 % 3 % 1024 hPa 0,0 l/m 0,0 km/h (0 Bft) 0 min
09.06.2015 20:05 23,7 C 15,0 C 15,4 C 86 % 3 % 1024 hPa 0,0 l/m 0,3 km/h (0 Bft) 0 min
09.06.2015 20:08 23,6 C 15,1 C 15,4 C 86 % 3 % 1024 hPa 0,0 l/m 0,3 km/h (0 Bft) 0 min
09.06.2015 20:11 23,7 C 15,0 C 15,3 C 86 % 3 % 1024 hPa 0,0 l/m 2,0 km/h (1 Bft) 0 min
09.06.2015 20:14 23,7 C 15,0 C 15,3 C 86 % 3 % 1024 hPa 0,0 l/m 0,1 km/h (0 Bft) 0 min
09.06.2015 20:17 23,7 C 15,0 C 15,2 C 86 % 3 % 1024 hPa 0,0 l/m 0,0 km/h (0 Bft) 0 min
09.06.2015 20:20 23,7 C 14,9 C 15,2 C 86 % 3 % 1024 hPa 0,0 l/m 0,0 km/h (0 Bft) 0 min
09.06.2015 20:23 23,7 C 14,9 C 15,4 C 86 % 2 % 1024 hPa 0,0 l/m 0,0 km/h (0 Bft) 0 min
09.06.2015 20:26 23,7 C 14,9 C 15,3 C 86 % 2 % 1024 hPa 0,0 l/m 0,0 km/h (0 Bft) 0 min
09.06.2015 20:29 23,8 C 14,9 C 15,4 C 86 % 2 % 1024 hPa 0,0 l/m 0,0 km/h (0 Bft) 0 min
09.06.2015 20:32 23,8 C 14,9 C 15,4 C 86 % 2 % 1024 hPa 0,0 l/m 0,1 km/h (0 Bft) 0 min
09.06.2015 20:35 23,7 C 14,9 C 15,4 C 86 % 2 % 1024 hPa 0,0 l/m 0,1 km/h (0 Bft) 0 min
09.06.2015 20:38 23,7 C 14,9 C 15,4 C 86 % 2 % 1024 hPa 0,0 l/m 2,3 km/h (1 Bft) 0 min
09.06.2015 20:41 23,7 C 14,9 C 15,3 C 86 % 2 % 1024 hPa 0,0 l/m 0,1 km/h (0 Bft) 0 min
09.06.2015 20:44 23,7 C 14,8 C 15,3 C 86 % 1 % 1024 hPa 0,0 l/m 0,1 km/h (0 Bft) 0 min
09.06.2015 20:47 23,8 C 14,8 C 15,3 C 86 % 1 % 1024 hPa 0,0 l/m 0,6 km/h (0 Bft) 0 min
09.06.2015 20:50 23,7 C 14,8 C 15,3 C 86 % 1 % 1024 hPa 0,0 l/m 0,6 km/h (0 Bft) 0 min
09.06.2015 20:53 23,7 C 14,7 C 15,2 C 86 % 1 % 1024 hPa 0,0 l/m 0,0 km/h (0 Bft) 0 min
09.06.2015 20:56 23,8 C 14,7 C 15,2 C 86 % 1 % 1024 hPa 0,0 l/m 0,0 km/h (0 Bft) 0 min
09.06.2015 20:59 23,7 C 14,7 C 15,3 C 86 % 1 % 1024 hPa 0,0 l/m 0,0 km/h (0 Bft) 0 min
09.06.2015 21:02 23,8 C 14,7 C 15,0 C 86 % 0 % 1024 hPa 0,0 l/m 0,0 km/h (0 Bft) 0 min
09.06.2015 21:05 23,7 C 14,7 C 15,2 C 86 % 0 % 1024 hPa 0,0 l/m 0,0 km/h (0 Bft) 0 min
09.06.2015 21:08 23,7 C 14,7 C 15,3 C 86 % 0 % 1025 hPa 0,0 l/m 0,0 km/h (0 Bft) 0 min
09.06.2015 21:11 23,7 C 14,7 C 15,2 C 85 % 0 % 1025 hPa 0,0 l/m 0,0 km/h (0 Bft) 0 min
09.06.2015 21:14 23,7 C 14,7 C 15,2 C 85 % 0 % 1025 hPa 0,0 l/m 0,0 km/h (0 Bft) 0 min
09.06.2015 21:17 23,7 C 14,7 C 15,3 C 85 % 0 % 1025 hPa 0,0 l/m 0,0 km/h (0 Bft) 0 min
09.06.2015 21:20 23,7 C 14,7 C 15,3 C 85 % 0 % 1025 hPa 0,0 l/m 0,0 km/h (0 Bft) 0 min
09.06.2015 21:23 23,7 C 14,7 C 15,1 C 85 % 0 % 1025 hPa 0,0 l/m 0,0 km/h (0 Bft) 0 min
09.06.2015 21:26 23,7 C 14,7 C 15,1 C 85 % 0 % 1025 hPa 0,0 l/m 0,0 km/h (0 Bft) 0 min
09.06.2015 21:29 23,7 C 14,7 C 15,1 C 85 % 0 % 1025 hPa 0,0 l/m 0,0 km/h (0 Bft) 0 min
09.06.2015 21:32 23,7 C 14,7 C 15,3 C 85 % 0 % 1025 hPa 0,0 l/m 0,0 km/h (0 Bft) 0 min
09.06.2015 21:35 23,7 C 14,7 C 15,2 C 85 % 0 % 1025 hPa 0,0 l/m 0,0 km/h (0 Bft) 0 min
09.06.2015 21:38 23,7 C 14,7 C 15,0 C 85 % 0 % 1025 hPa 0,0 l/m 0,0 km/h (0 Bft) 0 min
09.06.2015 21:41 23,7 C 14,6 C 15,0 C 85 % 0 % 1025 hPa 0,0 l/m 0,0 km/h (0 Bft) 0 min
09.06.2015 21:44 23,7 C 14,6 C 15,1 C 85 % 0 % 1025 hPa 0,0 l/m 0,0 km/h (0 Bft) 0 min
09.06.2015 21:47 23,7 C 14,6 C 15,2 C 85 % 0 % 1025 hPa 0,0 l/m 0,0 km/h (0 Bft) 0 min
09.06.2015 21:50 23,7 C 14,6 C 15,2 C 85 % 0 % 1025 hPa 0,0 l/m 0,0 km/h (0 Bft) 0 min
09.06.2015 21:53 23,7 C 14,6 C 15,1 C 85 % 0 % 1025 hPa 0,0 l/m 0,0 km/h (0 Bft) 0 min
09.06.2015 21:56 23,7 C 14,5 C 15,2 C 85 % 0 % 1025 hPa 0,0 l/m 0,0 km/h (0 Bft) 0 min
09.06.2015 21:59 23,7 C 14,5 C 15,0 C 85 % 0 % 1025 hPa 0,0 l/m 0,3 km/h (0 Bft) 0 min
09.06.2015 22:02 23,7 C 14,5 C 15,1 C 85 % 0 % 1025 hPa 0,0 l/m 0,1 km/h (0 Bft) 0 min
09.06.2015 22:05 23,7 C 14,5 C 15,2 C 85 % 0 % 1025 hPa 0,0 l/m 0,0 km/h (0 Bft) 0 min
09.06.2015 22:08 23,7 C 14,4 C 15,0 C 84 % 0 % 1025 hPa 0,0 l/m 0,0 km/h (0 Bft) 0 min
09.06.2015 22:11 23,8 C 14,4 C 15,0 C 84 % 0 % 1025 hPa 0,0 l/m 0,0 km/h (0 Bft) 0 min
09.06.2015 22:14 23,8 C 14,4 C 14,8 C 84 % 0 % 1025 hPa 0,0 l/m 0,0 km/h (0 Bft) 0 min
09.06.2015 22:17 23,7 C 14,4 C 15,0 C 84 % 0 % 1025 hPa 0,0 l/m 0,0 km/h (0 Bft) 0 min
09.06.2015 22:20 23,7 C 14,4 C 15,0 C 84 % 0 % 1025 hPa 0,0 l/m 0,0 km/h (0 Bft) 0 min
09.06.2015 22:23 23,7 C 14,4 C 15,0 C 84 % 0 % 1025 hPa 0,0 l/m 0,0 km/h (0 Bft) 0 min
09.06.2015 22:26 23,7 C 14,4 C 14,8 C 84 % 0 % 1025 hPa 0,0 l/m 0,3 km/h (0 Bft) 0 min
09.06.2015 22:29 23,7 C 14,4 C 14,8 C 84 % 0 % 1025 hPa 0,0 l/m 0,0 km/h (0 Bft) 0 min
09.06.2015 22:32 23,7 C 14,3 C 14,9 C 84 % 0 % 1025 hPa 0,0 l/m 0,0 km/h (0 Bft) 0 min
09.06.2015 22:35 23,7 C 14,4 C 14,9 C 84 % 0 % 1025 hPa 0,0 l/m 0,1 km/h (0 Bft) 0 min
09.06.2015 22:38 23,7 C 14,3 C 14,9 C 84 % 0 % 1025 hPa 0,0 l/m 0,0 km/h (0 Bft) 0 min
09.06.2015 22:41 23,7 C 14,3 C 14,9 C 84 % 0 % 1025 hPa 0,0 l/m 0,0 km/h (0 Bft) 0 min
09.06.2015 22:44 23,8 C 14,3 C 14,7 C 84 % 0 % 1025 hPa 0,0 l/m 0,0 km/h (0 Bft) 0 min
09.06.2015 22:47 23,8 C 14,3 C 14,8 C 84 % 0 % 1025 hPa 0,0 l/m 0,0 km/h (0 Bft) 0 min
09.06.2015 22:50 23,8 C 14,2 C 14,8 C 84 % 0 % 1025 hPa 0,0 l/m 0,0 km/h (0 Bft) 0 min
09.06.2015 22:53 23,7 C 14,2 C 14,8 C 84 % 0 % 1025 hPa 0,0 l/m 0,0 km/h (0 Bft) 0 min
09.06.2015 22:56 23,7 C 14,2 C 14,8 C 84 % 0 % 1025 hPa 0,0 l/m 0,0 km/h (0 Bft) 0 min
09.06.2015 22:59 23,7 C 14,2 C 14,8 C 84 % 0 % 1025 hPa 0,0 l/m 0,0 km/h (0 Bft) 0 min
09.06.2015 23:02 23,7 C 14,2 C 14,8 C 84 % 0 % 1025 hPa 0,0 l/m 0,0 km/h (0 Bft) 0 min
09.06.2015 23:05 23,7 C 14,2 C 14,8 C 84 % 0 % 1025 hPa 0,0 l/m 0,0 km/h (0 Bft) 0 min
09.06.2015 23:08 23,7 C 14,2 C 14,8 C 84 % 0 % 1025 hPa 0,0 l/m 0,0 km/h (0 Bft) 0 min
09.06.2015 23:11 23,7 C 14,2 C 14,8 C 83 % 0 % 1025 hPa 0,0 l/m 0,0 km/h (0 Bft) 0 min
09.06.2015 23:14 23,7 C 14,3 C 14,8 C 83 % 0 % 1025 hPa 0,0 l/m 0,0 km/h (0 Bft) 0 min
09.06.2015 23:17 23,7 C 14,2 C 14,9 C 84 % 0 % 1025 hPa 0,0 l/m 0,0 km/h (0 Bft) 0 min
09.06.2015 23:20 23,6 C 14,2 C 15,0 C 84 % 0 % 1025 hPa 0,0 l/m 0,0 km/h (0 Bft) 0 min
09.06.2015 23:23 23,6 C 14,3 C 14,8 C 84 % 0 % 1025 hPa 0,0 l/m 0,0 km/h (0 Bft) 0 min
09.06.2015 23:26 23,6 C 14,3 C 14,8 C 84 % 0 % 1025 hPa 0,0 l/m 0,0 km/h (0 Bft) 0 min
09.06.2015 23:29 23,6 C 14,3 C 14,8 C 84 % 0 % 1025 hPa 0,0 l/m 0,0 km/h (0 Bft) 0 min
09.06.2015 23:32 23,7 C 14,3 C 14,9 C 84 % 0 % 1025 hPa 0,0 l/m 0,0 km/h (0 Bft) 0 min
09.06.2015 23:35 23,6 C 14,3 C 15,0 C 84 % 0 % 1025 hPa 0,0 l/m 0,0 km/h (0 Bft) 0 min
09.06.2015 23:38 23,6 C 14,3 C 15,0 C 84 % 0 % 1025 hPa 0,0 l/m 0,0 km/h (0 Bft) 0 min
09.06.2015 23:41 23,6 C 14,3 C 15,0 C 84 % 0 % 1025 hPa 0,0 l/m 0,0 km/h (0 Bft) 0 min
09.06.2015 23:44 23,6 C 14,3 C 15,0 C 84 % 0 % 1025 hPa 0,0 l/m 0,0 km/h (0 Bft) 0 min
09.06.2015 23:47 23,6 C 14,2 C 14,8 C 84 % 0 % 1025 hPa 0,0 l/m 0,0 km/h (0 Bft) 0 min
09.06.2015 23:50 23,7 C 14,2 C 15,0 C 84 % 0 % 1025 hPa 0,0 l/m 0,0 km/h (0 Bft) 0 min
09.06.2015 23:53 23,6 C 14,2 C 14,8 C 84 % 0 % 1025 hPa 0,0 l/m 0,0 km/h (0 Bft) 0 min
09.06.2015 23:56 23,6 C 14,2 C 14,8 C 84 % 0 % 1025 hPa 0,0 l/m 0,0 km/h (0 Bft) 0 min
09.06.2015 23:59 23,6 C 14,2 C 14,9 C 84 % 0 % 1025 hPa 0,0 l/m 0,0 km/h (0 Bft) 0 min
_ Min-Zeit 17:47 22:50 08:11 15:26 - 00:38 - 01:50 -
Minimum _ 23,0 C 14,2 C 14,6 C 69 % - 1021 hPa - 0,0 km/h (0 Bft) -
_ Max-Zeit 06:44 15:23 00:05 06:17 12:05 21:08 00:11 01:32 11:56
Maximum _ 24,2 C 17,6 C 17,3 C 90 % 64 % 1025 hPa 0,7 l/m 13,9 km/h
W-NW (3 Bft)
3 min
Durchschnitt _ 23,8 C 15,5 C 15,7 C 83 % #51 min. 1023 hPa #7,5 l/m 3,2 km/h (1 Bft) #51 min.